Weather in Abergavenny

United Kingdom     51°49′23″N   3°01′02″W
temp.,
°C
wind,
m/s
gust,
m/s
humid.,
%
clouds,
%
prec.,
mm/h
press.,
hPa
HPBL,
m
23 april, fri
fri2301:00+2ne11810 0.0 102911
04:000nne22690 0.0 102811
07:00+1ne22710 0.0 102934
10:00+8e36570 0.0 1028533
13:00+12ese685373 0.0 1027950
16:00+13ese5753100 0.0 10261172
19:00+11ese3675100 0.0 1026233
22:00+5ene2287100 0.0 102817
24 april, sat
sat2401:00+2ne2274100 0.0 102814
04:00+1nne3375100 0.0 102828
07:00+2nne347899 0.0 102873
10:00+8ene586540 0.0 1028585
13:00+12e795923 0.0 10271115
16:00+13e796228 0.0 10261356
19:00+11e697552 0.0 1027823
22:00+6ne4129191 0.0 1029313
25 april, sun
sun2501:00+3nne3895100 0.0 1030242
04:00+1nne399684 0.0 1030235
07:00+1nne4119357 0.0 1030357
10:00+7ene79735 0.0 1029730
13:00+11ene78615 0.0 10281058
16:00+12ene78614 0.0 10261193
19:00+10ene697416 0.0 1025838
22:00+3ne39894 0.0 1027195
26 april, mon
mon2601:00+1nne45931 0.0 102675
04:000nne35935 0.0 102567
07:000n348796 0.0 1023107
10:00+6ne3463100 0.0 1021462
13:00+10ne3457100 0.0 1019748
16:00+12nne2355100 0.0 10161040
19:00+11se116910 0.0 101340
22:00+5nw228783 0.0 101318
27 april, tue
tue2701:00+7n238677 0.1 101266
04:00+4nnw229588 0.1 101117
07:00+5nne3698100 5.2 1011500
10:00+4ne489292 0.8 1013579
13:00+9ne797388 1.1 10121469
16:00+9ne687397 0.6 10131242
19:00+7nne698263 1.0 1013952
22:00+4nne5109490 0.1 1015670